Date,TemperatureHighF,TemperatureAvgF,TemperatureLowF,DewpointHighF,DewpointAvgF,DewpointLowF,HumidityHigh,HumidityAvg,HumidityLow,PressureMaxIn,PressureMinIn,WindSpeedMaxMPH,WindSpeedAvgMPH,GustSpeedMaxMPH,PrecipitationSumIn
2013-7-1,82,74,71,74,71,68,94,90,75,30.33,30.12,2,0,5,0.67
2013-7-2,72,71,70,70,70,69,95,95,95,30.28,30.25,1,1,6,0.00
2013-7-4,100,82,77,76,73,72,86,74,47,30.42,30.32,3,1,7,0.00
2013-7-5,100,81,73,77,73,70,90,76,46,30.37,30.27,3,2,7,0.00
2013-7-6,98,81,71,74,72,68,89,76,46,30.32,30.22,4,1,6,0.00
2013-7-7,88,76,68,75,70,65,92,83,63,30.25,30.13,3,0,7,0.00
2013-7-8,88,76,70,74,70,66,94,82,57,30.31,30.10,3,1,7,0.00
2013-7-9,77,71,67,70,67,64,92,87,79,30.36,30.23,1,0,4,0.00
2013-7-10,83,74,67,76,70,64,93,88,76,30.32,30.00,2,1,9,0.03
2013-7-11,84,74,68,75,70,65,93,86,68,30.20,29.98,2,1,5,0.02
2013-7-12,78,71,65,66,62,58,91,73,58,30.37,30.13,3,1,6,0.00
2013-7-13,74,69,64,71,65,59,94,88,80,30.56,30.37,1,0,3,0.25
2013-7-14,93,77,70,75,72,68,95,84,54,30.50,30.43,2,0,7,0.00
2013-7-15,98,78,68,76,70,66,94,79,46,30.49,30.39,2,0,7,0.00
2013-7-16,89,78,67,75,69,64,92,77,54,30.45,30.33,2,0,4,0.00
2013-7-17,92,79,68,76,71,65,94,77,57,30.38,30.24,2,1,7,0.00
2013-7-18,93,82,74,76,73,70,89,75,54,30.27,30.18,3,1,7,0.00
2013-7-19,94,83,73,77,74,70,92,75,54,30.17,30.03,4,2,8,0.00
2013-7-20,89,81,68,76,73,62,87,76,59,30.08,29.90,4,1,10,0.00
2013-7-21,83,73,64,70,66,60,89,78,54,30.26,30.04,2,0,3,0.00
2013-7-22,83,72,63,71,66,61,93,82,65,30.26,30.13,2,1,4,0.00
2013-7-23,80,72,68,76,69,66,95,93,87,30.14,29.75,3,0,8,1.60
2013-7-24,81,74,66,72,67,57,95,80,57,30.19,29.78,4,1,6,0.00
2013-7-25,66,61,59,58,55,50,93,81,70,30.34,30.15,2,0,7,0.08
2013-7-26,71,64,60,68,61,58,95,90,79,30.26,30.13,2,1,5,0.56
2013-7-27,80,68,58,69,62,57,95,82,58,30.29,30.18,2,1,6,0.00
2013-7-28,82,71,60,72,66,58,93,83,62,30.27,30.15,1,0,3,0.00
2013-7-29,83,73,64,70,66,60,93,80,60,30.31,30.16,2,1,6,0.00
2013-7-30,81,69,60,62,59,55,88,72,51,30.37,30.23,2,1,6,0.00
2013-7-31,81,68,58,64,60,55,91,76,53,30.32,30.23,1,0,5,0.00